Weather History for Rickenbacker, OH

Change the Weather History Date:

Wednesday, December 25, 2013

  Actual Average Record
Temperature  
Mean Temperature 24 °F -  
Max Temperature 33 °F 36 °F 49 °F (2011)
Min Temperature 16 °F 23 °F 0 °F (2004)
Degree Days  
Heating Degree Days 40    
Moisture  
Dew Point 14 °F    
Average Humidity 61    
Maximum Humidity 77    
Minimum Humidity 38    
Precipitation  
Precipitation 0.00 in - - ()
Sea Level Pressure  
Sea Level Pressure 30.35 in    
Wind  
Wind Speed 6 mph (South)    
Max Wind Speed 15 mph    
Max Gust Speed 18 mph    
Visibility 10 miles    
Events      
Averages and records for this station are not official NWS values.
T = Trace of Precipitation, MM = Missing Value Source: NWS Daily Summary

Daily Weather History Graph

Daily Weather History Graph

Search for Another Location

Airport:

Trip Planner

Search our weather history database for the weather conditions in past years. The results will help you decide how hot, cold, wet, or windy it might be!

Date:

Astronomy

Dec. 25, 2013 Rise Set
Actual Time 7:51 AM EST 5:12 PM EST
Civil Twilight 7:20 AM EST 5:43 PM EST
Nautical Twilight 6:46 AM EST 6:17 PM EST
Astronomical Twilight 6:13 AM EST 6:50 PM EST
Moon 12:18 AM EST (12/25) 12:15 PM EST (12/25)
Length of Visible Light 10h 22m
Length of Day
9h 21m
Waning Gibbous, 49% of the Moon is Illuminated
Dec 25
Waning Gibbous
Jan 1
New
Jan 7
First Quarter
Jan 15
Full
Jan 24
Last Quarter

Hourly Weather History & Observations

Time (EST) Temp. Windchill Dew Point Humidity Pressure Visibility Wind Dir Wind Speed Gust Speed Precip Events Conditions
12:15 AM 16.5 °F - 10.4 °F 77% 30.51 in 10.0 mi Calm Calm - N/A   Clear
12:35 AM 16.9 °F - 10.8 °F 77% 30.50 in 10.0 mi Calm Calm - N/A   Clear
12:55 AM 17.4 °F 12.1 °F 10.9 °F 76% 30.49 in 10.0 mi ESE 3.5 mph - N/A   Clear
1:15 AM 17.6 °F 12.3 °F 10.4 °F 73% 30.49 in 10.0 mi ESE 3.5 mph - N/A   Clear
1:35 AM 18.0 °F 11.1 °F 10.2 °F 72% 30.50 in 10.0 mi SSE 4.6 mph - N/A   Clear
1:55 AM 18.1 °F 12.9 °F 10.6 °F 72% 30.49 in 10.0 mi SSE 3.5 mph - N/A   Clear
2:15 AM 18.3 °F 9.1 °F 11.3 °F 74% 30.48 in 10.0 mi SSE 6.9 mph - N/A   Clear
2:35 AM 18.7 °F 11.9 °F 11.5 °F 74% 30.48 in 10.0 mi ESE 4.6 mph - N/A   Clear
2:55 AM 19.0 °F 12.3 °F 11.7 °F 73% 30.48 in 10.0 mi SSE 4.6 mph - N/A   Clear
3:15 AM 18.9 °F 12.1 °F 11.5 °F 73% 30.48 in 10.0 mi SE 4.6 mph - N/A   Clear
3:35 AM 19.0 °F 10.0 °F 11.7 °F 73% 30.48 in 10.0 mi SE 6.9 mph - N/A   Scattered Clouds
3:55 AM 19.2 °F 11.3 °F 11.8 °F 73% 30.48 in 10.0 mi SSE 5.8 mph - N/A   Mostly Cloudy
4:15 AM 19.4 °F 11.5 °F 12.2 °F 74% 30.47 in 10.0 mi SSE 5.8 mph - N/A   Mostly Cloudy
4:35 AM 19.6 °F 13.0 °F 12.0 °F 72% 30.47 in 10.0 mi SSE 4.6 mph - N/A   Overcast
4:55 AM 19.9 °F 12.1 °F 12.2 °F 72% 30.47 in 10.0 mi SE 5.8 mph - N/A   Overcast
5:15 AM 20.1 °F 11.3 °F 12.2 °F 71% 30.46 in 10.0 mi SSE 6.9 mph - N/A   Overcast
5:35 AM 20.3 °F 11.5 °F 12.0 °F 70% 30.47 in 10.0 mi South 6.9 mph - N/A   Overcast
5:55 AM 20.3 °F 13.8 °F 12.2 °F 71% 30.46 in 10.0 mi SSE 4.6 mph - N/A   Overcast
6:15 AM 20.3 °F 11.5 °F 12.2 °F 71% 30.47 in 10.0 mi SSE 6.9 mph - N/A   Mostly Cloudy
6:35 AM 20.3 °F 10.6 °F 12.2 °F 71% 30.46 in 10.0 mi SSE 8.1 mph - N/A   Scattered Clouds
6:55 AM 20.3 °F 10.6 °F 12.4 °F 71% 30.45 in 10.0 mi SSE 8.1 mph - N/A   Scattered Clouds
7:15 AM 20.5 °F 10.8 °F 12.2 °F 70% 30.45 in 10.0 mi SSE 8.1 mph - N/A   Mostly Cloudy
7:35 AM 20.7 °F 11.0 °F 12.2 °F 70% 30.45 in 10.0 mi SSE 8.1 mph - N/A   Mostly Cloudy
7:55 AM 20.7 °F 10.2 °F 11.8 °F 69% 30.44 in 10.0 mi SSE 9.2 mph - N/A   Mostly Cloudy
8:15 AM 20.8 °F 10.4 °F 12.4 °F 70% 30.43 in 10.0 mi SSE 9.2 mph - N/A   Overcast
8:35 AM 21.2 °F 12.6 °F 12.4 °F 69% 30.45 in 10.0 mi South 6.9 mph - N/A   Overcast
8:55 AM 21.4 °F 12.8 °F 12.2 °F 68% 30.44 in 10.0 mi SSE 6.9 mph - N/A   Mostly Cloudy
9:15 AM 21.7 °F 11.5 °F 12.2 °F 67% 30.42 in 10.0 mi SE 9.2 mph - N/A   Scattered Clouds
9:35 AM 22.1 °F 12.0 °F 12.2 °F 66% 30.43 in 10.0 mi SSE 9.2 mph - N/A   Scattered Clouds
9:55 AM 22.5 °F 12.4 °F 12.2 °F 65% 30.43 in 10.0 mi SSE 9.2 mph - N/A   Scattered Clouds
10:15 AM 23.0 °F 13.1 °F 12.0 °F 63% 30.42 in 10.0 mi South 9.2 mph - N/A   Scattered Clouds
10:35 AM 23.5 °F 13.0 °F 12.0 °F 61% 30.42 in 10.0 mi SSE 10.4 mph - N/A   Scattered Clouds
10:55 AM 25.2 °F 15.7 °F 11.8 °F 57% 30.41 in 10.0 mi South 9.2 mph - N/A   Scattered Clouds
11:15 AM 26.1 °F 18.4 °F 12.0 °F 55% 30.40 in 10.0 mi South 6.9 mph - N/A   Mostly Cloudy
11:35 AM 27.7 °F 17.6 °F 11.3 °F 50% 30.38 in 10.0 mi South 11.5 mph - N/A   Scattered Clouds
11:55 AM 28.8 °F 18.4 °F 10.9 °F 47% 30.37 in 10.0 mi South 12.7 mph - N/A   Clear
12:15 PM 29.3 °F 19.1 °F 11.8 °F 48% 30.33 in 10.0 mi South 12.7 mph - N/A   Scattered Clouds
12:35 PM 30.0 °F 20.0 °F 11.7 °F 46% 30.32 in 10.0 mi South 12.7 mph - N/A   Mostly Cloudy
12:55 PM 30.6 °F 20.2 °F 9.7 °F 42% 30.31 in 10.0 mi South 13.8 mph 17.3 mph N/A   Scattered Clouds
1:15 PM 30.9 °F 20.2 °F 9.3 °F 40% 30.29 in 10.0 mi South 15.0 mph - N/A   Scattered Clouds
1:35 PM 31.1 °F 20.9 °F 9.5 °F 41% 30.28 in 10.0 mi South 13.8 mph - N/A   Mostly Cloudy
1:55 PM 31.5 °F 22.3 °F 10.0 °F 41% 30.28 in 10.0 mi South 11.5 mph 18.4 mph N/A   Overcast
2:15 PM 32.0 °F 23.6 °F 9.5 °F 39% 30.27 in 10.0 mi SSW 10.4 mph 17.3 mph N/A   Overcast
2:35 PM 32.0 °F 22.5 °F 9.0 °F 38% 30.27 in 10.0 mi SSW 12.7 mph - N/A   Overcast
2:55 PM 32.0 °F 23.6 °F 10.0 °F 40% 30.27 in 10.0 mi SSW 10.4 mph - N/A   Overcast
3:15 PM 32.0 °F 25.6 °F 11.1 °F 42% 30.26 in 10.0 mi South 6.9 mph - N/A   Overcast
3:35 PM 32.0 °F 23.6 °F 11.5 °F 43% 30.25 in 10.0 mi South 10.4 mph - N/A   Overcast
3:55 PM 32.0 °F 24.8 °F 11.1 °F 42% 30.25 in 10.0 mi South 8.1 mph - N/A   Overcast
4:15 PM 32.0 °F 26.4 °F 12.7 °F 45% 30.25 in 10.0 mi South 5.8 mph - N/A   Overcast
4:35 PM 32.0 °F 28.7 °F 13.1 °F 46% 30.26 in 10.0 mi SSW 3.5 mph - N/A   Overcast
4:55 PM 32.2 °F - 13.6 °F 46% 30.25 in 10.0 mi Calm Calm - N/A   Overcast
5:15 PM 32.0 °F - 15.3 °F 50% 30.26 in 10.0 mi Calm Calm - N/A   Overcast
5:35 PM 32.0 °F - 16.5 °F 53% 30.26 in 10.0 mi Calm Calm - N/A   Overcast
5:55 PM 32.0 °F 27.5 °F 17.6 °F 55% 30.25 in 10.0 mi SSE 4.6 mph - N/A   Overcast
6:15 PM 32.2 °F 27.7 °F 17.8 °F 55% 30.24 in 10.0 mi South 4.6 mph - N/A   Overcast
6:35 PM 32.4 °F 26.0 °F 17.4 °F 54% 30.24 in 10.0 mi South 6.9 mph - N/A   Overcast
6:55 PM 32.2 °F 22.7 °F 18.5 °F 57% 30.24 in 10.0 mi South 12.7 mph - N/A   Overcast
7:15 PM 31.3 °F 24.7 °F 21.0 °F 66% 30.24 in 10.0 mi South 6.9 mph - N/A   Overcast
7:35 PM 31.3 °F 23.3 °F 21.2 °F 66% 30.23 in 10.0 mi South 9.2 mph - N/A   Overcast
7:55 PM 32.0 °F 24.8 °F 19.9 °F 61% 30.23 in 10.0 mi South 8.1 mph - N/A   Overcast
8:15 PM 32.2 °F 25.0 °F 20.1 °F 61% 30.23 in 10.0 mi South 8.1 mph - N/A   Overcast
8:35 PM 32.5 °F 24.8 °F 21.6 °F 64% 30.23 in 10.0 mi South 9.2 mph - N/A   Overcast
8:55 PM 32.9 °F 25.9 °F 21.7 °F 64% 30.23 in 10.0 mi South 8.1 mph - N/A   Overcast
9:15 PM 32.9 °F 26.7 °F 21.7 °F 64% 30.22 in 10.0 mi SSW 6.9 mph - N/A   Overcast
9:35 PM 33.1 °F 25.5 °F 22.1 °F 64% 30.22 in 10.0 mi SW 9.2 mph - N/A   Overcast
9:55 PM 33.8 °F 26.4 °F 22.6 °F 64% 30.21 in 10.0 mi SW 9.2 mph - N/A   Overcast
10:15 PM 33.8 °F 25.3 °F 22.6 °F 64% 30.21 in 10.0 mi SSW 11.5 mph 16.1 mph N/A   Overcast
10:35 PM 33.8 °F 27.0 °F 22.6 °F 64% 30.20 in 10.0 mi SSW 8.1 mph - N/A   Overcast
10:55 PM 33.6 °F 27.5 °F 22.8 °F 65% 30.19 in 10.0 mi South 6.9 mph - N/A   Overcast
11:15 PM 33.4 °F 26.6 °F 23.2 °F 66% 30.19 in 10.0 mi South 8.1 mph - N/A   Overcast
11:35 PM 33.8 °F 26.4 °F 23.7 °F 67% 30.18 in 10.0 mi SSW 9.2 mph - N/A   Overcast
11:55 PM 33.8 °F 26.4 °F 24.1 °F 68% 30.17 in 10.0 mi South 9.2 mph - N/A   Overcast